INTELSAT 33E DEB, 64407

Orbit data source: Space-Track

INTELSAT 33E DEB, 64407 is space debris in GEO originally from a launch on Wed, 24 Aug 2016 UTC launched from the French Guiana (FRGUI). Debris objects in space refer to the collection of defunct objects orbiting the Earth. Examples of debris include non-operational satellites, rocket bodies, and fragments generated from explosions, collisions, or faulty payload assembly.

Not visible in the next 10 days
Identifier
64407, 2016-053AM
Orbit
GEO
Country
Flag of USUS / ITSO
Related business
Manufacturer
Boeing/ES
Mission
Spacecraft
Bus & Motor
Unknown
Mass
Unknown
Launch date (UTC)
Icon of a cake. It is the launch day of the satellite!2016-08-24 (10 years ago)
Launch vehicle
Unknown
Launch site
French Guiana (FRGUI)
Object type
Payload
Rocket body
Debris
Shape & HBR
Unknown shape, 1.1 m
Radar Cross Section
RCS unknown

Expand to show TLE details & history
Last TLE update: 2 days ago

TLE from 2 days ago
0 INTELSAT 33E DEB
1 64407U 16053AM  26234.16509498 -.00000132  00000-0  00000-0 0  9992
2 64407   1.6554  67.0734 0330781 107.2541 256.8695  0.96106444  6295
Epoch: 2026-08-22T03:57Z
TLE epoch observation values (Epoch: 2026-08-22T03:57:44.206Z)
Latitude
0.00001°
Longitude
37.62146°
Altitude
37,361.453 km
Speed
3.006 km/s
True Right ascension
04h 30m 08s
True Declination
0° 00' 00"
Sunlit
Object was in daylight at epoch
Visualization orbit readout
Latitude
Unknown
Longitude
Unknown
Altitude
Unknown
Speed
Unknown
Apparent Right ascension
Unknown
Apparent Declination
Unknown
Sunlit
N/A
Visualization observer readout
Local Sidereal Time
15:53:48
Azimuth
Unknown
Elevation
Unknown
Doppler factor
Unknown
Orbital elements
Apogee altitude
38,432.085 km
Perigee altitude
35,562.53 km
Semi-major axis
43,375.445 km
Eccentricity
0.03308
Inclination
1.6554°
RAAN
67.0734°
Arg. of periapsis
107.2541°
True anomaly
253.21497°
Mean anomaly
256.8695°
Eccentric anomaly
255.03851°
Mean motion
0.24026 °/min
Orbital period
1,498.39 mins
BSTAR
0
Loading maneuver chart data...
Computing Atmospheric mass density...
Loading historical data...
Loading historical data...
Loading historical data...
Loading historical data...
Loading historical data...
Loading historical data...
Loading historical data...

Documentation

Showing up to 5 results
|